Date String (YYYY-MM-DD hh:mm:ss) UTC,Instrument flags,Ambient pressure (hPa),Sample flow (lpm),Bypass flow (lpm),Sample temperature (°C),Ambient temperature (°C),ASC tube jacket temperature (°C),LED temperature (°C),Box temperature (°C),Sample RH (%),Span deviation,Mass concentration (μg/m³),Mass concentration (μg/m³),Mass concentration (μg/m³)
DateTimeUTC,F1_M11,P_M11,Q1_M11,Q2_M11,T1_M11,T2_M11,T3_M11,T4_M11,T5_M11,U1_M11,ZSPAN_M11,X0_M11,X2_M11,X1_M11
2021-09-25 13:00:00,,0830.5,5.01,0.00,30.0,29.0,00.0,39.1,31.6,16.3,0002.6,0018.42,0007.11,0005.60
2021-09-25 13:01:00,,0830.5,4.98,0.00,30.0,29.0,00.0,39.1,31.6,16.3,0002.6,0018.62,0007.23,0005.61
2021-09-25 13:02:00,,0830.6,5.01,0.00,30.0,29.0,00.0,39.1,31.7,16.3,0002.4,0018.63,0007.29,0005.60
2021-09-25 13:03:00,,0830.6,4.98,0.00,30.0,29.0,00.0,39.1,31.7,16.3,0002.0,0018.98,0007.34,0005.59
2021-09-25 13:04:00,,0830.5,5.00,0.00,30.0,29.0,00.0,39.1,31.7,16.3,0001.9,0019.48,0007.41,0005.58
2021-09-25 13:05:00,,0830.6,5.01,0.00,30.0,29.0,00.0,39.1,31.7,16.3,0001.8,0019.63,0007.37,0005.57
2021-09-25 13:06:00,,0830.6,5.00,0.00,30.0,29.0,00.0,39.1,31.7,16.2,0001.6,0019.48,0007.35,0005.56
2021-09-25 13:07:00,,0830.6,5.01,0.00,30.0,29.0,00.0,39.1,31.7,16.3,0001.9,0019.55,0007.36,0005.56
2021-09-25 13:08:00,,0830.6,4.99,0.00,30.0,29.0,00.0,39.1,31.7,16.4,0001.1,0019.38,0007.39,0005.56
2021-09-25 13:09:00,,0830.6,4.99,0.00,29.9,29.0,00.0,39.1,31.6,16.3,0000.8,0019.96,0007.45,0005.55
2021-09-25 13:10:00,,0830.6,5.01,0.00,29.9,29.1,00.0,39.1,31.6,16.4,0001.1,0019.68,0007.44,0005.53
2021-09-25 13:11:00,,0830.6,5.00,0.00,29.9,29.0,00.0,39.1,31.6,16.4,0001.3,0019.68,0007.43,0005.52
2021-09-25 13:12:00,,0830.6,4.98,0.00,30.0,29.0,00.0,39.1,31.6,16.4,0001.7,0019.73,0007.37,0005.51
2021-09-25 13:13:00,,0830.6,5.00,0.00,30.0,29.0,00.0,39.1,31.7,16.3,0001.7,0020.79,0007.39,0005.52
2021-09-25 13:14:00,,0830.6,5.00,0.00,30.0,29.0,00.0,39.1,31.7,16.3,0001.7,0021.28,0007.41,0005.54
2021-09-25 13:15:00,,0830.6,5.00,0.00,30.0,29.0,00.0,39.1,31.7,16.4,0001.6,0022.93,0007.48,0005.55
2021-09-25 13:16:00,,0830.6,5.00,0.00,30.0,29.0,00.0,39.1,31.7,16.4,0001.8,0022.99,0007.50,0005.57
2021-09-25 13:17:00,,0830.6,5.00,0.00,30.0,29.0,00.0,39.1,31.7,16.4,0001.6,0022.74,0007.49,0005.58
2021-09-25 13:18:00,,0830.6,5.01,0.00,30.0,29.0,00.0,39.1,31.7,16.4,0001.5,0023.60,0007.50,0005.58
2021-09-25 13:19:00,,0830.6,4.98,0.00,30.0,29.0,00.0,39.1,31.7,16.4,0002.3,0023.57,0007.56,0005.60
2021-09-25 13:20:00,,0830.6,5.01,0.00,30.0,29.0,00.0,39.1,31.7,16.4,0002.2,0023.05,0007.54,0005.60
2021-09-25 13:21:00,,0830.7,4.99,0.00,30.0,29.0,00.0,39.1,31.7,16.3,0001.8,0023.63,0007.56,0005.61
2021-09-25 13:22:00,,0830.6,5.00,0.00,30.0,29.0,00.0,39.1,31.7,16.3,0002.1,0023.57,0007.60,0005.63
2021-09-25 13:23:00,,0830.6,5.00,0.00,30.0,29.0,00.0,39.1,31.7,16.2,0001.8,0023.44,0007.62,0005.65
2021-09-25 13:24:00,,0830.6,4.99,0.00,30.0,29.0,00.0,39.1,31.7,16.2,0001.8,0022.75,0007.62,0005.66
2021-09-25 13:25:00,,0830.6,5.01,0.00,30.0,29.1,00.0,39.1,31.7,16.0,0001.9,0022.32,0007.64,0005.66
2021-09-25 13:26:00,,0830.6,5.00,0.00,30.0,29.1,00.0,39.1,31.7,15.9,0002.0,0019.31,0007.54,0005.67
2021-09-25 13:27:00,,0830.6,5.00,0.00,30.0,29.1,00.0,39.1,31.7,15.4,0001.3,0018.95,0007.53,0005.68
2021-09-25 13:28:00,,0830.6,5.00,0.00,30.0,29.0,00.0,39.1,31.7,15.9,0001.4,0018.61,0007.50,0005.68
2021-09-25 13:29:00,,0830.6,5.01,0.00,30.0,29.1,00.0,39.1,31.7,16.2,0001.1,0017.64,0007.48,0005.68
2021-09-25 13:30:00,,0830.6,4.99,0.00,30.0,29.1,00.0,39.1,31.7,16.3,0001.1,0017.35,0007.43,0005.67
2021-09-25 13:31:00,,0830.6,5.00,0.00,30.0,29.0,00.0,39.1,31.7,16.2,0001.4,0016.95,0007.43,0005.68
2021-09-25 13:32:00,,0830.6,5.02,0.00,30.0,29.0,00.0,39.1,31.7,16.2,0001.8,0016.44,0007.44,0005.68
2021-09-25 13:33:00,,0830.6,5.01,0.00,30.0,29.0,00.0,39.1,31.7,16.3,0001.0,0017.53,0007.44,0005.69
2021-09-25 13:34:00,,0830.7,4.98,0.00,30.0,29.1,00.0,39.1,31.7,16.3,0001.0,0018.17,0007.40,0005.70
2021-09-25 13:35:00,,0830.7,5.01,0.00,30.0,29.1,00.0,39.2,31.8,16.2,0001.6,0017.72,0007.35,0005.69
2021-09-25 13:36:00,,0830.7,5.00,0.00,30.0,29.1,00.0,39.2,31.7,16.2,0001.7,0017.36,0007.29,0005.70
2021-09-25 13:37:00,,0830.7,4.98,0.00,30.0,29.1,00.0,39.2,31.7,16.2,0001.8,0017.43,0007.31,0005.71
2021-09-25 13:38:00,,0830.7,5.01,0.00,30.0,29.1,00.0,39.2,31.8,16.2,0002.2,0017.74,0007.32,0005.70
2021-09-25 13:39:00,,0830.7,4.99,0.00,30.0,29.1,00.0,39.2,31.7,16.2,0002.5,0018.06,0007.31,0005.69
2021-09-25 13:40:00,,0830.7,4.99,0.00,30.0,29.1,00.0,39.2,31.7,16.2,0002.5,0018.27,0007.37,0005.69
2021-09-25 13:41:00,,0830.7,5.00,0.00,30.1,29.1,00.0,39.2,31.8,16.2,0002.4,0018.86,0007.43,0005.70
2021-09-25 13:42:00,,0830.7,5.00,0.00,30.1,29.1,00.0,39.2,31.8,16.2,0002.3,0019.27,0007.47,0005.71
2021-09-25 13:43:00,,0830.7,5.00,0.00,30.1,29.1,00.0,39.2,31.8,16.0,0002.1,0019.25,0007.46,0005.72
2021-09-25 13:44:00,,0830.7,5.01,0.00,30.1,29.1,00.0,39.2,31.8,16.0,0002.3,0018.33,0007.47,0005.69
2021-09-25 13:45:00,,0830.7,4.99,0.00,30.1,29.2,00.0,39.2,31.9,15.8,0002.0,0017.97,0007.48,0005.69
2021-09-25 13:46:00,,0830.7,5.00,0.00,30.1,29.2,00.0,39.2,31.8,15.6,0001.8,0018.34,0007.55,0005.68
2021-09-25 13:47:00,,0830.7,4.99,0.00,30.1,29.2,00.0,39.2,31.8,15.4,0001.7,0018.54,0007.58,0005.68
2021-09-25 13:48:00,,0830.7,5.00,0.00,30.1,29.2,00.0,39.2,31.9,15.1,0001.6,0018.21,0007.51,0005.68
2021-09-25 13:49:00,,0830.6,4.99,0.00,30.1,29.2,00.0,39.2,31.9,15.0,0001.8,0017.48,0007.45,0005.68
2021-09-25 13:50:00,,0830.6,4.99,0.00,30.1,29.2,00.0,39.2,31.9,15.0,0001.6,0017.88,0007.47,0005.69
2021-09-25 13:51:00,,0830.7,5.01,0.00,30.1,29.3,00.0,39.2,31.9,14.9,0001.4,0017.67,0007.42,0005.70
2021-09-25 13:52:00,,0830.6,5.00,0.00,30.2,29.3,00.0,39.2,31.9,14.7,0001.4,0017.53,0007.37,0005.72
2021-09-25 13:53:00,,0830.6,4.99,0.00,30.2,29.3,00.0,39.3,31.9,14.7,0001.9,0017.69,0007.35,0005.73
2021-09-25 13:54:00,,0830.6,5.01,0.00,30.2,29.3,00.0,39.3,31.9,14.7,0002.3,0017.87,0007.41,0005.75
2021-09-25 13:55:00,,0830.6,5.01,0.00,30.2,29.3,00.0,39.3,31.9,14.6,0002.5,0017.51,0007.40,0005.77
2021-09-25 13:56:00,,0830.6,5.00,0.00,30.2,29.3,00.0,39.3,32.0,14.0,0002.7,0017.11,0007.38,0005.80
2021-09-25 13:57:00,,0830.7,5.00,0.00,30.2,29.3,00.0,39.3,32.0,14.1,0002.6,0016.88,0007.28,0005.83
2021-09-25 13:58:00,,0830.6,5.01,0.00,30.2,29.3,00.0,39.3,32.0,14.3,0002.8,0016.41,0007.27,0005.86
2021-09-25 13:59:00,,0830.6,4.99,0.00,30.2,29.3,00.0,39.3,32.0,14.2,0003.0,0016.51,0007.30,0005.88
